Wise, VA

1:18 PM EDT on April 26, 2017 (GMT -0400)
Lonesome Pine

Weather History for KLNP - April, 2013

Change the Weather History Date:

Wednesday, April 24, 2013

  Actual Average Record
Temperature  
Mean Temperature 50 °F -  
Max Temperature 64 °F 62 °F 80 °F (2008)
Min Temperature 37 °F 44 °F 28 °F (2005)
Degree Days  
Heating Degree Days 14    
Moisture  
Dew Point 48 °F    
Average Humidity 73    
Maximum Humidity 100    
Minimum Humidity 55    
Precipitation  
Precipitation 0.10 in - - ()
Sea Level Pressure  
Sea Level Pressure 30.05 in    
Wind  
Wind Speed 12 mph (SW)    
Max Wind Speed 24 mph    
Max Gust Speed 34 mph    
Visibility 9 miles    
Events Rain    
Averages and records for this station are not official NWS values.
T = Trace of Precipitation, MM = Missing Value Source: NWS Daily Summary

Daily Weather History Graph

Daily Weather History Graph

Search for Another Location

Airport or City:

Trip Planner

Search our weather history database for the weather conditions in past years. The results will help you decide how hot, cold, wet, or windy it might be!

Date:

Astronomy

Apr. 24, 2013 Rise Set
Actual Time 6:43 AM EDT 8:13 PM EDT
Civil Twilight 6:16 AM EDT 8:40 PM EDT
Nautical Twilight 5:43 AM EDT 9:13 PM EDT
Astronomical Twilight 5:09 AM EDT 9:48 PM EDT
Moon 7:15 PM EDT (4/24) 5:45 AM EDT (4/24)
Length of Visible Light 14h 24m
Length of Day
13h 29m
Waxing Gibbous, 98% of the Moon is Illuminated
Apr 24
Waxing Gibbous
Apr 25
Full
May 2
Last Quarter
May 9
New
May 18
First Quarter

Hourly Weather History & Observations

Time (EDT) Temp. Windchill Dew Point Humidity Pressure Visibility Wind Dir Wind Speed Gust Speed Precip Events Conditions
12:15 AM 59.0 °F - 42.8 °F 55% 30.07 in 10.0 mi South 8.1 mph - N/A   Clear
12:35 AM 59.0 °F - 42.8 °F 55% 30.07 in 10.0 mi SSW 9.2 mph - N/A   Clear
12:55 AM 55.4 °F - 42.8 °F 63% 30.07 in 10.0 mi SSW 5.8 mph - N/A   Clear
1:15 AM 59.0 °F - 42.8 °F 55% 30.07 in 10.0 mi SSW 18.4 mph 24.2 mph N/A   Clear
1:35 AM 59.0 °F - 44.6 °F 59% 30.07 in 10.0 mi SW 15.0 mph - N/A   Clear
2:15 AM 59.0 °F - 44.6 °F 59% 30.07 in 10.0 mi SSW 13.8 mph - N/A   Clear
2:35 AM 57.2 °F - 44.6 °F 63% 30.07 in 10.0 mi SSW 12.7 mph 19.6 mph N/A   Clear
2:55 AM 57.2 °F - 44.6 °F 63% 30.07 in 10.0 mi SSW 10.4 mph - N/A   Clear
3:15 AM 53.6 °F - 44.6 °F 72% 30.07 in 10.0 mi WSW 6.9 mph - N/A   Clear
3:35 AM 53.6 °F - 44.6 °F 72% 30.06 in 10.0 mi SW 10.4 mph - N/A   Clear
3:55 AM 57.2 °F - 44.6 °F 63% 30.05 in 10.0 mi SSW 11.5 mph 21.9 mph N/A   Clear
4:15 AM 55.4 °F - 44.6 °F 67% 30.05 in 10.0 mi SW 9.2 mph - N/A   Clear
4:35 AM 55.4 °F - 44.6 °F 67% 30.05 in 10.0 mi SSW 9.2 mph - N/A   Clear
4:55 AM 55.4 °F - 44.6 °F 67% 30.05 in 10.0 mi SSW 12.7 mph 18.4 mph N/A   Clear
5:15 AM 55.4 °F - 44.6 °F 67% 30.05 in 10.0 mi SW 6.9 mph - N/A   Clear
5:35 AM 55.4 °F - 44.6 °F 67% 30.05 in 10.0 mi SSW 10.4 mph - N/A   Clear
5:55 AM 53.6 °F - 44.6 °F 72% 30.05 in 10.0 mi SSW 10.4 mph - N/A   Clear
6:15 AM 55.4 °F - 44.6 °F 67% 30.05 in 10.0 mi SSW 12.7 mph 18.4 mph N/A   Clear
6:35 AM 55.4 °F - 44.6 °F 67% 30.04 in 10.0 mi South 15.0 mph 20.7 mph N/A   Clear
6:55 AM 55.4 °F - 44.6 °F 67% 30.04 in 10.0 mi SSW 15.0 mph 23.0 mph N/A   Clear
7:15 AM 55.4 °F - 44.6 °F 67% 30.04 in 10.0 mi SSW 13.8 mph 20.7 mph N/A   Clear
7:35 AM 57.2 °F - 44.6 °F 63% 30.03 in 10.0 mi SSW 13.8 mph 20.7 mph N/A   Clear
7:55 AM 59.0 °F - 46.4 °F 63% 30.03 in 10.0 mi SSW 12.7 mph 21.9 mph N/A   Clear
8:15 AM 59.0 °F - 46.4 °F 63% 30.03 in 10.0 mi SSW 15.0 mph 19.6 mph N/A   Clear
8:35 AM 59.0 °F - 46.4 °F 63% 30.03 in 10.0 mi SSW 16.1 mph 20.7 mph N/A   Clear
8:55 AM 59.0 °F - 46.4 °F 63% 30.03 in 10.0 mi SSW 15.0 mph 19.6 mph N/A   Clear
9:15 AM 59.0 °F - 46.4 °F 63% 30.02 in 10.0 mi South 15.0 mph 18.4 mph N/A   Clear
9:35 AM 60.8 °F - 46.4 °F 59% 30.00 in 10.0 mi South 13.8 mph 20.7 mph N/A   Clear
9:55 AM 60.8 °F - 46.4 °F 59% 30.00 in 10.0 mi South 16.1 mph 20.7 mph N/A   Clear
10:15 AM 60.8 °F - 46.4 °F 59% 30.01 in 10.0 mi South 17.3 mph 20.7 mph N/A   Clear
10:35 AM 60.8 °F - 46.4 °F 59% 30.00 in 10.0 mi South 18.4 mph 25.3 mph N/A   Clear
10:55 AM 62.6 °F - 46.4 °F 55% 30.01 in 10.0 mi SSW 18.4 mph 24.2 mph N/A   Clear
11:15 AM 62.6 °F - 46.4 °F 55% 30.03 in 10.0 mi South 10.4 mph - N/A   Scattered Clouds
11:35 AM 62.6 °F - 48.2 °F 59% 30.05 in 10.0 mi SSW 12.7 mph 24.2 mph N/A   Mostly Cloudy
11:55 AM 64.4 °F - 50.0 °F 59% 30.04 in 10.0 mi SSW 13.8 mph 24.2 mph N/A   Mostly Cloudy
12:15 PM 64.4 °F - 50.0 °F 59% 30.03 in 10.0 mi SSW 17.3 mph 26.5 mph N/A   Mostly Cloudy
12:35 PM 64.4 °F - 50.0 °F 59% 30.01 in 10.0 mi SSW 16.1 mph 29.9 mph N/A   Scattered Clouds
12:55 PM 64.4 °F - 50.0 °F 59% 30.01 in 10.0 mi South 13.8 mph 25.3 mph N/A   Scattered Clouds
1:15 PM 64.4 °F - 50.0 °F 59% 30.02 in 10.0 mi SW 20.7 mph 34.5 mph N/A   Scattered Clouds
1:35 PM 64.4 °F - 50.0 °F 59% 30.02 in 10.0 mi SSW 11.5 mph - N/A   Overcast
1:55 PM 64.4 °F - 50.0 °F 59% 30.02 in 10.0 mi SSW 17.3 mph 24.2 mph N/A   Overcast
2:15 PM 64.4 °F - 51.8 °F 64% 30.01 in 10.0 mi SSW 16.1 mph - N/A   Overcast
2:35 PM 64.4 °F - 51.8 °F 64% 30.01 in 10.0 mi SSW 15.0 mph - N/A   Overcast
2:55 PM 62.6 °F - 53.6 °F 72% 30.02 in 10.0 mi WSW 15.0 mph 20.7 mph N/A Rain Rain
3:15 PM 59.0 °F - 57.2 °F 94% 30.05 in 7.0 mi WSW 13.8 mph 24.2 mph 0.07 in Rain Light Rain
3:35 PM 57.2 °F - 57.2 °F 100% 30.03 in 5.0 mi SW 20.7 mph 25.3 mph 0.10 in Rain Rain
3:55 PM 59.0 °F - 57.2 °F 94% 29.98 in 10.0 mi South 12.7 mph - 0.10 in   Overcast
4:15 PM 59.0 °F - 55.4 °F 88% 30.01 in 10.0 mi SW 16.1 mph 24.2 mph N/A   Scattered Clouds
4:35 PM 59.0 °F - 55.4 °F 88% 30.01 in 10.0 mi SW 15.0 mph 24.2 mph N/A   Mostly Cloudy
4:55 PM 60.8 °F - 55.4 °F 82% 30.00 in 10.0 mi SW 21.9 mph 33.4 mph N/A   Overcast
5:15 PM 60.8 °F - 55.4 °F 82% 30.01 in 10.0 mi SW 24.2 mph 31.1 mph N/A   Overcast
5:35 PM 59.0 °F - 55.4 °F 88% 30.01 in 10.0 mi SW 18.4 mph 31.1 mph N/A   Overcast
5:55 PM 60.8 °F - 55.4 °F 82% 30.02 in 10.0 mi SW 18.4 mph 26.5 mph N/A   Overcast
6:15 PM 59.0 °F - 55.4 °F 88% 30.02 in 10.0 mi WSW 17.3 mph 26.5 mph N/A   Overcast
6:35 PM 59.0 °F - 53.6 °F 82% 30.04 in 10.0 mi WNW 12.7 mph 25.3 mph N/A   Overcast
6:55 PM 51.8 °F - 51.8 °F 100% 30.07 in 7.0 mi NW 11.5 mph 23.0 mph N/A   Overcast
7:15 PM 50.0 °F - 50.0 °F 100% 30.09 in 10.0 mi West 15.0 mph 23.0 mph N/A   Overcast
7:35 PM 50.0 °F - 50.0 °F 100% 30.09 in 10.0 mi NW 9.2 mph - N/A Rain Light Rain
7:55 PM 46.4 °F 41.1 °F 46.4 °F 100% 30.10 in 4.0 mi WNW 11.5 mph 20.7 mph N/A Rain Light Rain
8:15 PM 46.4 °F 41.9 °F 46.4 °F 100% 30.12 in 4.0 mi NW 9.2 mph 16.1 mph N/A Rain Light Rain
8:35 PM 44.6 °F 38.8 °F 44.6 °F 100% 30.14 in 4.0 mi NW 11.5 mph 20.7 mph N/A Rain Light Rain
8:55 PM 44.6 °F 40.7 °F 44.6 °F 100% 30.15 in 4.0 mi NW 6.9 mph 16.1 mph N/A Rain Rain
9:15 PM 44.6 °F 39.7 °F 44.6 °F 100% 30.15 in 4.0 mi NNW 9.2 mph 18.4 mph N/A Rain Rain
9:35 PM 42.8 °F 38.0 °F 42.8 °F 100% 30.17 in 4.0 mi NW 8.1 mph - N/A Rain Light Rain
9:55 PM 42.8 °F 37.5 °F 42.8 °F 100% 30.18 in 0.8 mi NNW 9.2 mph 17.3 mph N/A Rain Light Rain
11:35 PM 37.4 °F 33.8 °F 37.4 °F 100% 30.23 in 7.0 mi NW 4.6 mph - N/A   Overcast
11:55 PM 37.4 °F 34.9 °F 37.4 °F 100% 30.23 in 10.0 mi NNW 3.5 mph - N/A   Overcast